User: anonymous   Login
Location: Unspecified
(0.0000°N, 0.0000°E)
Time: 08:55:37
(UTC+00:00)
Language:

DNEPR OBJECT AB - Orbit

View from above orbital plane
View from above orbital plane
View from above satellite
View from above satellite

Ground track
Ground track

The orbit data is extracted from the following two-line orbital elements,

1 39441U 13066AB  23088.82800313  .00004870  00000-0  66439-3 0  9993
2 39441  97.7752  37.1915 0077358 301.9850  57.3858 14.77026525502138
Epoch (UTC): 29 March 2023 19:52:19
Eccentricity: 0.0077358
inclination: 97.7752°
perigee height: 584 km
apogee height: 693 km
right ascension of ascending node: 37.1915°
argument of perigee: 301.9850°
revolutions per day: 14.77026525
mean anomaly at epoch: 57.3858°
orbit number at epoch: 50213

The dashed part of the orbit path shows where the satellite is in the earth's shadow,  

DLR